Weather History for Kansas City, MO

Change the Weather History Date:

Monday, July 22, 2013

  Actual Average Record
Temperature  
Mean Temperature 84 °F -  
Max Temperature 96 °F 87 °F 102 °F (2011)
Min Temperature 73 °F 70 °F 64 °F (2000)
Cooling Degree Days 20    
Growing Degree Days 34 (Base 50)    
Moisture  
Dew Point 69 °F    
Average Humidity 63    
Maximum Humidity 87    
Minimum Humidity 43    
Precipitation  
Precipitation 0.00 in - - ()
Sea Level Pressure  
Sea Level Pressure 29.78 in    
Wind  
Wind Speed 4 mph (SSW)    
Max Wind Speed 15 mph    
Max Gust Speed 23 mph    
Visibility 10 miles    
Events      
Averages and records for this station are not official NWS values.
T = Trace of Precipitation, MM = Missing Value Source: NWS Daily Summary

Daily Weather History Graph

Daily Weather History Graph

Search for Another Location

Airport:

Trip Planner

Search our weather history database for the weather conditions in past years. The results will help you decide how hot, cold, wet, or windy it might be!

Date:

Astronomy

Jul. 22, 2013 Rise Set
Actual Time 6:10 AM CDT 8:38 PM CDT
Civil Twilight 5:39 AM CDT 9:09 PM CDT
Nautical Twilight 5:01 AM CDT 9:47 PM CDT
Astronomical Twilight 4:19 AM CDT 10:29 PM CDT
Moon 8:26 PM CDT (7/22) 6:07 AM CDT (7/22)
Length of Visible Light 15h 29m
Length of Day
14h 28m
Full, 100% of the Moon is Illuminated
Jul 22
Full
Jul 22
Full
Jul 29
Last Quarter
Aug 6
New
Aug 14
First Quarter

Hourly Weather History & Observations

Time (CDT) Temp. Heat Index Dew Point Humidity Pressure Visibility Wind Dir Wind Speed Gust Speed Precip Events Conditions
12:54 AM 77.0 °F - 70.0 °F 79% 29.84 in 10.0 mi NE 4.6 mph - N/A   Clear
1:54 AM 75.0 °F - 71.1 °F 87% 29.82 in 10.0 mi Calm Calm - N/A   Clear
2:54 AM 75.0 °F - 70.0 °F 84% 29.80 in 10.0 mi Calm Calm - N/A   Clear
3:54 AM 75.9 °F - 71.1 °F 85% 29.78 in 10.0 mi Calm Calm - N/A   Clear
4:54 AM 75.0 °F - 70.0 °F 84% 29.78 in 10.0 mi Calm Calm - N/A   Clear
5:54 AM 73.9 °F - 69.1 °F 85% 29.79 in 10.0 mi Calm Calm - N/A   Clear
6:54 AM 75.9 °F - 70.0 °F 82% 29.80 in 10.0 mi SSW 5.8 mph - N/A   Mostly Cloudy
7:54 AM 79.0 °F - 70.0 °F 74% 29.81 in 10.0 mi South 5.8 mph - N/A   Overcast
8:54 AM 81.0 °F 84.9 °F 71.1 °F 72% 29.81 in 10.0 mi South 5.8 mph - N/A   Scattered Clouds
9:54 AM 84.0 °F 89.6 °F 72.0 °F 67% 29.80 in 10.0 mi SSW 8.1 mph - N/A   Scattered Clouds
10:54 AM 87.1 °F 93.6 °F 72.0 °F 61% 29.80 in 10.0 mi SSW 4.6 mph - N/A   Clear
11:54 AM 87.1 °F 93.6 °F 72.0 °F 61% 29.81 in 10.0 mi South 4.6 mph - N/A   Overcast
12:54 PM 90.0 °F 96.9 °F 72.0 °F 55% 29.78 in 10.0 mi SW 8.1 mph - N/A   Partly Cloudy
1:54 PM 91.0 °F 98.2 °F 72.0 °F 53% 29.78 in 10.0 mi South 8.1 mph 18.4 mph N/A   Mostly Cloudy
2:54 PM 95.0 °F 102.5 °F 71.1 °F 46% 29.77 in 10.0 mi WSW 15.0 mph 18.4 mph N/A   Scattered Clouds
3:54 PM 95.0 °F 102.5 °F 71.1 °F 46% 29.74 in 10.0 mi SW 8.1 mph - N/A   Partly Cloudy
4:54 PM 96.1 °F 102.9 °F 70.0 °F 43% 29.75 in 10.0 mi SW 10.4 mph - N/A   Clear
5:54 PM 91.9 °F 95.4 °F 66.9 °F 44% 29.74 in 10.0 mi WSW 11.5 mph 23.0 mph N/A   Clear
6:54 PM 89.1 °F 91.3 °F 66.0 °F 46% 29.75 in 10.0 mi WSW 11.5 mph - N/A   Clear
7:54 PM 88.0 °F 89.3 °F 64.0 °F 45% 29.75 in 10.0 mi SW 11.5 mph 21.9 mph N/A   Clear
8:54 PM 86.0 °F 87.6 °F 64.9 °F 49% 29.74 in 10.0 mi WSW 5.8 mph - N/A   Clear
9:54 PM 84.0 °F 85.8 °F 64.9 °F 53% 29.75 in 10.0 mi Calm Calm - N/A   Clear
10:54 PM 82.9 °F 84.6 °F 64.9 °F 54% 29.79 in 10.0 mi Calm Calm - N/A   Clear
11:54 PM 81.0 °F 83.0 °F 66.0 °F 60% 29.79 in 10.0 mi South 5.8 mph - N/A   Clear